Wind_Speed
44 45 45 43 42 42 42 42 42 42 43 45 45 43 41 41 41 39 38 36 35 33 33 32 31 30 29 29 28 28 27 27 27 27 27 26 26 25 25 25 26 26 26 26
45 45 43 43 44 43 42 43 42 42 44 46 47 45 42 43 43 42 41 40 37 36 35 34 34 33 32 31 30 30 29 29 29 29 28 28 27 27 27 27 27 27 27 28
46 44 43 44 44 45 44 43 43 43 43 46 48 47 44 43 44 43 42 41 40 38 37 36 36 35 34 33 32 32 32 31 30 30 30 29 29 29 28 28 28 28 29 29
45 44 44 45 45 45 45 43 44 45 45 46 48 50 46 44 45 44 42 42 41 40 39 38 38 37 36 36 35 34 33 33 32 31 31 30 30 30 30 30 30 30 30 30
44 44 45 45 44 45 46 44 45 46 47 48 47 51 49 45 45 44 42 42 42 41 41 40 39 38 38 37 37 36 35 35 34 33 32 32 32 31 31 31 31 31 31 32
44 44 45 44 43 44 45 45 45 47 49 52 48 51 51 46 44 43 42 42 42 42 42 41 40 39 38 38 37 37 37 36 36 35 34 34 33 33 33 32 32 32 33 33
42 43 45 45 44 44 45 45 45 47 50 53 49 51 52 45 43 43 42 42 41 42 42 41 41 40 39 38 38 38 38 37 37 36 36 35 34 34 33 34 33 33 34 34
41 42 43 45 45 45 45 45 46 48 49 50 50 51 49 45 43 42 42 42 42 42 42 41 41 40 40 39 39 38 38 38 38 37 37 36 36 35 35 35 35 34 34 35
39 41 41 42 44 45 45 46 45 46 48 49 51 50 48 45 43 42 42 42 42 41 41 41 42 41 40 40 39 39 39 39 39 38 37 37 37 36 36 36 36 36 36 36
38 39 40 40 42 44 44 43 43 45 47 48 49 49 47 43 42 41 41 41 41 41 41 41 42 42 41 40 40 39 39 39 39 39 38 38 38 37 38 38 37 37 37 38
38 39 39 40 41 40 43 44 45 46 49 50 51 49 45 43 41 40 41 42 41 41 41 41 41 42 41 40 40 40 40 40 40 40 40 39 39 39 39 39 38 38 39 39
37 38 38 38 38 39 42 43 45 46 47 49 51 50 43 41 41 41 41 41 40 40 40 41 41 41 41 41 41 40 41 41 41 41 41 41 41 41 40 40 40 40 39 40
37 39 39 39 38 39 42 43 44 45 46 47 48 47 43 42 42 42 41 41 41 40 40 41 41 42 42 42 42 42 42 42 42 42 43 43 42 42 41 41 41 41 41 41
36 39 40 40 39 39 41 42 44 46 47 47 47 45 42 41 42 42 42 41 42 41 40 41 42 43 43 44 44 44 43 43 43 44 44 44 44 44 43 43 43 42 42 42
36 39 40 41 41 41 41 41 43 47 47 48 45 44 41 40 41 41 41 41 42 42 41 41 41 42 42 43 44 44 44 44 44 45 45 45 45 44 44 44 44 44 43 43
36 37 38 41 41 42 43 42 42 43 45 45 45 44 40 41 42 41 41 42 42 41 41 41 42 42 42 43 43 44 44 44 45 45 45 45 46 46 45 45 46 45 44 44
36 38 38 39 40 43 43 40 41 42 42 44 45 41 39 41 43 43 42 43 43 42 42 43 42 42 42 43 44 44 44 45 46 46 46 46 46 46 46 46 46 46 45 45
35 36 37 39 41 44 40 40 40 41 41 42 43 42 41 42 43 44 43 44 45 45 44 44 44 44 44 44 45 45 45 45 46 46 46 46 46 45 45 45 45 45 45 45
36 35 37 38 40 41 38 38 39 41 42 40 41 42 42 42 44 44 44 45 46 46 46 45 44 44 45 45 45 46 46 45 45 45 45 45 45 45 45 45 44 44 45 45
38 38 38 38 40 40 34 34 36 40 41 39 41 41 42 43 44 43 43 45 47 47 48 47 46 46 46 45 46 46 45 45 45 45 45 45 45 44 44 45 45 45 45 45
38 39 40 39 39 38 33 33 35 38 37 38 40 41 42 43 43 41 43 45 46 46 46 46 46 47 46 45 45 45 45 45 45 45 45 45 44 44 45 45 45 45 45 45
36 39 40 40 40 35 31 33 34 36 36 38 40 41 42 43 43 42 43 44 45 45 45 45 45 45 45 46 46 46 46 46 46 46 46 46 45 45 46 46 45 46 46 45
35 36 38 39 39 36 34 35 34 35 36 36 38 40 42 43 44 43 43 43 44 45 45 46 45 45 45 46 47 47 46 46 46 46 46 46 46 46 46 46 46 46 46 46
34 35 37 38 37 36 36 36 36 36 37 37 38 40 41 42 42 43 43 44 44 45 45 45 45 45 46 46 46 47 47 47 47 47 46 46 47 47 47 47 47 46 46 46
34 35 35 35 34 36 37 37 37 38 38 38 38 40 41 41 42 42 43 43 45 44 44 45 45 45 46 46 45 46 46 47 47 47 48 47 47 47 47 47 47 46 46 46
34 35 36 35 34 36 36 37 38 39 38 39 39 39 40 42 42 42 43 43 42 43 44 44 45 45 45 45 44 44 45 46 46 46 46 46 46 46 46 46 46 45 45 45
Wind_Direction
238 239 240 241 242 244 246 246 245 243 243 244 243 242 239 240 241 240 239 240 242 243 244 246 248 250 252 253 255 256 257 258 261 263 265 268 271 275 277 279 281 282 284 286
238 239 240 242 243 243 244 246 246 245 245 246 245 243 240 240 241 241 240 240 242 244 245 247 248 250 252 254 255 257 258 259 261 263 266 268 270 273 275 277 279 281 283 284
239 239 239 241 242 243 244 246 246 246 246 247 248 245 240 240 241 242 242 242 243 244 245 247 249 251 253 255 256 257 258 260 261 262 265 267 270 273 274 276 278 280 282 283
237 237 238 240 241 243 245 246 247 248 247 247 249 249 242 241 241 241 242 242 243 244 246 248 249 251 253 255 256 256 257 259 260 261 264 266 270 272 273 275 277 279 281 282
237 237 239 241 241 243 245 245 247 247 248 248 248 251 244 242 241 242 242 243 244 245 246 248 250 251 252 254 255 256 256 257 259 261 262 265 268 270 273 275 277 278 280 281
239 239 240 241 241 243 244 244 246 246 247 248 246 250 247 242 243 243 243 243 244 245 246 247 249 250 251 252 254 255 256 257 258 260 262 264 267 269 272 275 276 278 279 280
242 241 242 241 241 242 242 243 246 246 247 249 248 249 249 245 244 244 244 244 244 245 246 247 249 250 250 252 253 254 256 257 258 260 262 264 266 269 271 274 275 276 278 279
245 243 243 243 243 243 244 244 246 248 250 251 250 250 250 249 246 245 245 245 246 246 247 249 250 250 251 252 253 254 255 257 258 260 261 264 266 268 270 272 273 275 276 277
248 247 244 244 244 244 245 245 247 250 251 252 251 250 249 249 248 247 247 246 246 246 247 248 249 249 250 252 252 253 255 257 258 260 261 263 266 267 268 270 272 273 274 275
250 250 246 245 244 244 246 247 246 247 250 252 252 251 249 249 250 249 248 247 246 246 246 247 248 249 250 251 252 253 255 256 258 259 261 262 264 266 267 269 270 272 273 274
250 251 248 245 245 245 245 244 244 247 250 252 254 251 250 252 252 252 250 248 248 247 247 248 248 248 250 250 251 252 254 256 257 259 260 262 263 265 267 269 270 271 272 273
248 250 249 248 247 246 245 245 245 247 249 251 254 252 251 253 252 252 251 250 249 248 248 248 249 249 250 252 252 252 253 254 256 258 260 261 263 265 267 269 270 271 272 274
247 249 251 250 248 247 245 244 244 246 248 250 251 252 251 254 254 252 252 251 251 249 248 248 248 249 249 251 252 253 253 254 256 257 258 260 262 264 266 268 270 271 272 273
248 249 251 252 251 252 251 248 245 246 248 249 250 251 250 251 252 253 253 252 251 249 248 247 247 248 248 249 251 252 253 254 256 257 259 260 262 263 265 267 268 270 271 272
249 251 251 252 252 253 253 251 249 249 250 251 250 250 248 248 248 248 249 248 248 248 247 247 247 248 249 250 250 251 253 254 256 258 259 261 262 263 265 266 267 269 271 272
251 254 253 252 252 252 252 250 251 251 250 251 250 248 247 247 246 245 245 246 246 246 246 247 248 250 251 251 251 252 253 255 257 259 260 260 261 262 264 266 267 268 271 272
254 256 257 255 252 253 253 252 254 253 252 251 250 249 247 247 246 247 247 247 247 246 247 249 250 250 250 251 251 252 254 255 257 258 259 259 260 261 262 264 266 268 269 271
254 257 259 259 257 256 256 255 254 254 253 253 251 248 248 247 247 246 247 247 247 248 248 250 251 250 250 251 252 252 253 255 257 257 258 259 260 261 262 264 266 267 269 271
253 256 259 259 260 260 258 256 257 257 254 252 252 250 249 248 248 247 248 249 250 250 251 251 252 253 253 252 253 253 254 255 256 257 257 258 259 260 262 263 265 267 268 270
255 256 259 261 263 264 263 261 259 258 255 253 253 252 250 250 250 249 250 251 252 251 252 253 253 253 254 253 253 254 254 255 256 257 257 257 259 260 262 263 264 266 268 270
256 256 259 261 264 266 266 264 262 260 260 255 254 253 251 250 252 250 250 251 252 252 253 253 253 254 253 252 252 253 254 254 255 256 256 257 258 260 261 263 264 266 268 269
259 260 260 262 263 265 266 262 261 262 259 256 253 253 253 252 252 251 251 251 253 252 252 253 253 253 253 253 253 253 254 254 254 256 257 257 259 260 261 262 264 265 268 269
261 263 264 263 264 264 262 262 262 259 257 256 254 253 254 253 253 252 252 251 253 254 254 254 254 253 253 253 253 253 254 254 255 256 257 258 259 260 262 263 265 267 268 270
263 263 264 264 263 263 262 262 261 261 259 257 255 254 254 254 254 254 254 253 253 254 254 255 254 253 253 253 254 254 254 255 257 257 257 258 260 260 262 264 265 266 268 270
263 263 263 264 265 265 262 261 261 260 259 257 256 256 254 255 256 256 256 256 255 255 255 256 255 255 254 254 256 256 256 257 257 257 258 259 259 261 262 263 264 265 267 269
262 264 265 266 266 265 264 262 260 260 259 258 257 257 257 256 257 257 256 256 256 255 255 255 256 255 254 255 255 255 256 257 257 257 259 259 259 260 261 263 263 264 266 268
Height
5717 5722 5726 5732 5735 5739 5740 5743 5747 5751 5754 5754 5757 5762 5768 5769 5772 5777 5781 5784 5787 5790 5793 5795 5797 5799 5801 5803 5804 5805 5806 5806 5807 5807 5808 5808 5808 5807 5807 5806 5805 5804 5802 5801
5708 5713 5720 5723 5725 5727 5730 5733 5738 5742 5744 5744 5747 5751 5757 5760 5763 5768 5772 5775 5779 5782 5785 5787 5789 5791 5793 5795 5796 5797 5799 5799 5800 5801 5801 5801 5801 5801 5800 5799 5798 5797 5796 5794
5699 5708 5710 5712 5715 5717 5721 5725 5729 5732 5734 5734 5736 5740 5747 5751 5754 5759 5763 5767 5770 5774 5776 5779 5781 5783 5785 5787 5789 5790 5791 5792 5792 5793 5793 5793 5793 5793 5793 5792 5791 5790 5788 5787
5690 5696 5699 5702 5706 5709 5712 5717 5719 5721 5723 5725 5727 5727 5738 5742 5745 5750 5755 5758 5761 5765 5768 5770 5772 5775 5776 5778 5780 5781 5783 5784 5784 5785 5785 5786 5786 5786 5785 5784 5784 5782 5781 5780
5682 5687 5689 5692 5698 5700 5704 5707 5708 5710 5711 5714 5717 5717 5726 5732 5736 5741 5746 5749 5752 5755 5758 5761 5763 5766 5768 5769 5771 5773 5774 5775 5776 5777 5777 5778 5778 5778 5777 5777 5776 5774 5773 5772
5673 5676 5678 5684 5688 5690 5693 5696 5697 5698 5699 5701 5708 5708 5712 5723 5728 5733 5736 5739 5742 5745 5748 5751 5753 5756 5758 5760 5761 5763 5765 5766 5767 5768 5769 5769 5770 5769 5769 5768 5767 5766 5765 5764
5662 5666 5669 5673 5677 5680 5683 5685 5686 5686 5687 5691 5699 5697 5703 5715 5720 5723 5727 5729 5732 5735 5738 5740 5743 5746 5748 5750 5752 5754 5756 5757 5758 5759 5760 5761 5761 5760 5760 5760 5759 5758 5757 5755
5652 5657 5661 5664 5668 5671 5673 5675 5677 5678 5680 5684 5686 5687 5698 5704 5709 5713 5716 5719 5722 5725 5728 5731 5733 5736 5738 5740 5742 5744 5746 5748 5749 5750 5751 5751 5751 5751 5751 5751 5750 5749 5748 5746
5643 5648 5652 5655 5658 5660 5662 5664 5668 5669 5670 5671 5674 5680 5688 5693 5698 5702 5706 5709 5712 5715 5718 5721 5723 5726 5728 5730 5732 5734 5736 5738 5739 5740 5741 5741 5742 5742 5742 5741 5740 5740 5738 5737
5634 5637 5642 5645 5646 5649 5652 5655 5657 5657 5658 5660 5664 5670 5678 5684 5688 5692 5695 5698 5701 5704 5707 5710 5712 5715 5717 5720 5722 5723 5725 5727 5728 5729 5730 5731 5731 5732 5732 5731 5731 5730 5729 5727
5625 5627 5631 5634 5636 5640 5643 5645 5645 5647 5649 5651 5653 5663 5671 5675 5678 5682 5685 5687 5690 5693 5696 5699 5702 5704 5707 5709 5711 5713 5714 5716 5717 5719 5720 5720 5721 5721 5721 5721 5721 5720 5719 5717
5617 5618 5620 5624 5628 5629 5631 5634 5636 5638 5640 5641 5643 5653 5662 5665 5667 5670 5672 5676 5679 5682 5685 5688 5690 5693 5695 5698 5700 5702 5704 5705 5707 5708 5709 5710 5710 5710 5711 5711 5710 5709 5708 5707
5608 5609 5611 5613 5618 5618 5620 5623 5625 5627 5629 5630 5633 5643 5651 5653 5655 5658 5661 5664 5667 5670 5673 5676 5679 5681 5684 5686 5689 5691 5693 5694 5695 5696 5698 5698 5699 5699 5700 5700 5699 5698 5697 5696
5598 5599 5602 5604 5607 5609 5610 5613 5615 5616 5617 5620 5624 5632 5640 5642 5644 5647 5650 5652 5654 5658 5661 5664 5666 5669 5671 5674 5677 5679 5681 5682 5684 5685 5686 5687 5688 5688 5688 5688 5687 5687 5686 5685
5587 5589 5591 5593 5595 5597 5599 5601 5604 5605 5608 5611 5616 5620 5628 5631 5632 5634 5637 5639 5642 5646 5649 5652 5655 5657 5659 5662 5664 5666 5668 5670 5671 5673 5674 5676 5676 5676 5677 5676 5676 5675 5674 5673
5577 5579 5580 5582 5584 5584 5585 5590 5593 5595 5598 5600 5604 5609 5617 5618 5619 5621 5624 5627 5630 5634 5637 5640 5643 5646 5648 5650 5652 5654 5656 5658 5659 5660 5662 5663 5664 5664 5664 5664 5664 5663 5663 5662
5568 5569 5570 5571 5573 5571 5574 5582 5583 5584 5587 5590 5591 5600 5604 5604 5607 5609 5612 5615 5617 5621 5624 5627 5630 5633 5636 5638 5639 5641 5643 5645 5646 5648 5649 5650 5651 5651 5652 5652 5651 5651 5650 5649
5558 5559 5559 5560 5561 5560 5570 5572 5572 5573 5576 5578 5580 5586 5589 5591 5594 5596 5599 5602 5605 5608 5611 5615 5617 5620 5622 5624 5626 5628 5630 5632 5633 5635 5636 5637 5638 5638 5639 5639 5639 5639 5638 5637
5549 5549 5549 5549 5548 5550 5558 5561 5561 5561 5564 5569 5570 5573 5576 5578 5579 5584 5588 5589 5592 5595 5598 5602 5605 5607 5609 5611 5613 5615 5617 5619 5620 5622 5623 5624 5625 5626 5626 5626 5627 5626 5625 5625
5540 5540 5541 5540 5538 5540 5550 5551 5549 5549 5552 5559 5558 5560 5563 5564 5566 5574 5576 5576 5579 5582 5586 5589 5592 5594 5596 5598 5600 5601 5603 5605 5607 5609 5610 5611 5612 5613 5614 5614 5614 5613 5613 5612
5530 5530 5530 5530 5528 5530 5540 5540 5538 5539 5544 5546 5546 5547 5549 5551 5555 5560 5561 5563 5566 5569 5572 5575 5577 5580 5583 5584 5586 5588 5590 5592 5594 5595 5596 5597 5598 5600 5600 5601 5601 5600 5600 5599
5520 5520 5521 5520 5519 5525 5530 5528 5528 5529 5531 5532 5533 5535 5536 5539 5543 5545 5548 5551 5553 5556 5559 5561 5563 5566 5569 5571 5573 5575 5577 5579 5580 5582 5583 5584 5585 5586 5587 5587 5587 5587 5587 5586
5509 5511 5511 5511 5514 5517 5517 5517 5517 5517 5518 5520 5521 5523 5524 5527 5530 5532 5535 5538 5540 5543 5545 5548 5550 5553 5555 5557 5559 5562 5564 5565 5567 5568 5570 5571 5572 5573 5574 5574 5574 5574 5574 5573
5500 5500 5499 5500 5503 5505 5506 5506 5506 5506 5507 5508 5509 5511 5513 5514 5517 5520 5522 5525 5527 5530 5532 5534 5537 5539 5542 5543 5546 5548 5550 5551 5553 5554 5556 5557 5558 5559 5560 5560 5561 5561 5561 5560
5489 5489 5489 5490 5493 5493 5494 5494 5494 5495 5495 5497 5498 5499 5500 5502 5505 5507 5509 5512 5514 5516 5518 5521 5523 5525 5528 5530 5532 5534 5535 5537 5539 5540 5542 5543 5544 5545 5546 5546 5547 5547 5547 5547
5480 5479 5479 5480 5482 5481 5482 5483 5482 5483 5484 5485 5486 5488 5489 5490 5492 5494 5496 5498 5500 5502 5505 5507 5509 5512 5514 5516 5518 5520 5521 5523 5524 5526 5528 5529 5530 5531 5532 5533 5533 5533 5533 5533